Hourly Data Report for October 23, 2016

All times are specified in Local Standard Time (LST). Add 1 hour to adjust for Daylight Saving Time where and when it is observed.

OTTAWA INTL A
ONTARIO

45°19'00.000" N
75°40'00.000" W
114.90 m
6106001
71628
YOW

Download Data

Hourly Data (October 2016)
Hourly Data Report for October 23, 2016
Temp Definition
°C
Dew Point Temp Definition
°C
Rel Hum Definition
%
Wind Dir Definition
10's deg

Wind Spd Definition
km/h
Visibility Definition
km
Stn Press Definition
kPa
Hmdx Definition


Wind Chill Definition


Weather Definition


TIME
00:00 Legend Double Dagger 4.6 -0.4 70 29 28 24.1 98.58     LegendNANA
01:00 Legend Double Dagger 4.6 -1.2 66 29 45 24.1 98.59     Cloudy
02:00 Legend Double Dagger 4.1 -1.3 68 28 36 24.1 98.58     LegendNANA
03:00 Legend Double Dagger 4.0 -1.4 68 29 42 24.1 98.65     LegendNANA
04:00 Legend Double Dagger 3.2 -1.7 70 28 36 24.1 98.71     Mostly Cloudy
05:00 Legend Double Dagger 2.4 -2.3 71 27 36 24.1 98.78     LegendNANA
06:00 Legend Double Dagger 2.5 -2.6 69 27 32 24.1 98.84     LegendNANA
07:00 Legend Double Dagger 1.5 -2.6 74 27 20 24.1 98.93     Mostly Cloudy
08:00 Legend Double Dagger 1.7 -2.8 72 27 33 24.1 98.97     LegendNANA
09:00 Legend Double Dagger 3.4 -2.6 65 27 34 24.1 99.03     LegendNANA
10:00 Legend Double Dagger 4.8 -2.5 59 28 36 24.1 99.02     Mainly Clear
11:00 Legend Double Dagger 6.8 -3.2 49 29 34 24.1 99.04     LegendNANA
12:00 Legend Double Dagger 8.4 -4.1 41 29 42 24.1 99.00     LegendNANA
13:00 Legend Double Dagger 10.0 -4.4 36 27 34 24.1 99.06     Mainly Clear
14:00 Legend Double Dagger 11.1 -5.4 31 27 33 24.1 99.08     LegendNANA
15:00 Legend Double Dagger 10.9 -5.1 32 28 34 24.1 99.10     LegendNANA
16:00 Legend Double Dagger 10.2 -1.2 45 27 35 24.1 99.14     Mainly Clear
17:00 Legend Double Dagger 8.0 0.5 59 27 34 24.1 99.21     LegendNANA
18:00 Legend Double Dagger 7.0 0.2 62 26 31 24.1 99.28     LegendNANA
19:00 Legend Double Dagger 7.5 0.9 63 26 27 24.1 99.35     Mostly Cloudy
20:00 Legend Double Dagger 7.0 1.3 67 26 22 24.1 99.36     LegendNANA
21:00 Legend Double Dagger 7.0 1.1 66 27 21 24.1 99.38     LegendNANA
22:00 Legend Double Dagger 6.6 1.3 69 26 22 24.1 99.37     Mostly Cloudy
23:00 Legend Double Dagger 6.6 1.7 71 28 22 24.1 99.35     LegendNANA

Notes on Data Quality.

Legend

  • E = Estimated
  • M = Missing
  • NA = Not Available
  • ‡ = Partner data that is not subject to review by the National Climate Archives
Date modified: